Home > Weather > Monrovia > Past weeks

Flag for Liberia Past Weather in Monrovia, Liberia — Yesterday and Last 2 Weeks

Now
79 °F

Partly sunny.


Feels Like: 82 °F
Forecast: 76 / 81 °F
Wind: 6 mph from Southwest

Location: Roberts Field

Current Time: Jul 30, 2016 at 1:08:17 PM

Latest Report: Jul 30, 2016 at 12:30 PM


Visibility: N/A

Pressure: 29.98 "Hg

Humidity: 89%

Dew Point: 75 °F

Location of MonroviaLocation

Past Weather in Monrovia — Graph

°F

Monrovia Temperature Yesterday

Maximum temperature yesterday: 82 °F (at 1:00 PM)
Minimum temperature yesterday: 75 °F (at 12:00 AM)
Average temperature yesterday: 77 °F

High & Low Weather Summary for the Past Weeks

 TemperatureHumidityPressure
High95 °F (Jul 25, 12:30 AM)100% (Jul 27, 8:30 AM)30.01 "Hg (Jul 27, 8:30 AM)
Low72 °F (Jul 20, 7:00 AM)50% (Jul 25, 12:30 AM)29.86 "Hg (Jul 15, 3:00 PM)
Average78 °F87%29.94 "Hg
* Reported Jul 15 12:00 PM — Jul 30 12:00 PM, Monrovia, Weather by CustomWeather, © 2016

Note: Actual official high and low records may vary slightly from our data, if they occured in-between our weather recording intervals... More about our weather records

Advertising

Monrovia Weather History for the Previous 24 Hours

Scroll right to see more
 ConditionsComfort  
Time TempWeatherWind HumidityBarometerVisibility
12:00 PM
Sat, Jul 30
77 °FLight rain. Partly sunny.No wind94%29.98 "Hg6 mi
11:30 AM77 °FLight rain. Partly sunny.No wind94%29.98 "Hg4 mi
11:00 AM75 °FLight rain. Partly sunny.No wind94%30.01 "Hg4 mi
10:30 AM75 °FLight rain. Partly sunny.No wind94%30.01 "Hg4 mi
10:00 AM75 °FLight rain. Broken clouds.No wind94%29.98 "Hg4 mi
9:30 AM73 °FRain. Broken clouds.No wind94%29.98 "Hg2 mi
9:00 AM73 °FLight rain. Mostly cloudy.No wind94%29.98 "Hg1 mi
8:30 AM73 °FLight rain. Mostly cloudy.No wind94%29.98 "Hg1 mi
8:00 AM73 °FLight rain. Mostly cloudy.No wind94%29.95 "Hg1 mi
7:30 AM73 °FLight rain. Mostly cloudy.No wind94%29.95 "Hg1 mi
7:00 AM73 °FLight rain. Partly cloudy.No wind94%29.95 "Hg2 mi
6:30 AM73 °FLight rain. Partly cloudy.No wind94%29.95 "Hg2 mi
6:00 AM73 °FLight rain. Partly cloudy.No wind94%29.95 "Hg2 mi
5:30 AM75 °FRain. Partly cloudy.No wind94%29.92 "Hg2 mi
5:00 AM75 °FRain. Partly cloudy.No wind94%29.92 "Hg2 mi
3:30 AM75 °FLight rain. Partly cloudy.No wind94%29.92 "Hg3 mi
3:00 AM75 °FLight rain. Partly cloudy.No wind94%29.92 "Hg3 mi
2:30 AM75 °FLight rain. Partly cloudy.No wind94%29.92 "Hg2 mi
12:00 AM75 °FPassing clouds.No wind94%29.98 "HgN/A
11:30 PM
Fri, Jul 29
75 °FPassing clouds.No wind94%29.98 "HgN/A
11:00 PM75 °FPassing clouds.No wind94%29.98 "Hg6 mi
10:30 PM75 °FPassing clouds.No wind94%29.95 "HgN/A
10:00 PM75 °FPassing clouds.No wind94%29.98 "HgN/A
9:30 PM75 °FPassing clouds.No wind94%29.95 "HgN/A
9:00 PM75 °FPassing clouds.No wind94%29.95 "HgN/A
8:30 PM75 °FPassing clouds.No wind94%29.92 "HgN/A
8:00 PM77 °FPassing clouds.No wind89%29.92 "HgN/A
7:30 PM77 °FPartly sunny.No wind89%29.92 "HgN/A
7:00 PM77 °FPartly sunny.5 mph89%29.92 "HgN/A
6:30 PM77 °FPartly sunny.6 mph89%29.89 "HgN/A
6:00 PM77 °FPartly sunny.9 mph89%29.89 "HgN/A
5:30 PM77 °FPartly sunny.8 mph89%29.89 "HgN/A
5:00 PM79 °FPartly sunny.7 mph84%29.89 "HgN/A
4:30 PM79 °FPartly sunny.12 mph84%29.89 "HgN/A
4:00 PM79 °FPartly sunny.13 mph84%29.89 "HgN/A
3:30 PM79 °FPartly sunny.9 mph84%29.92 "HgN/A
3:00 PM79 °FPartly sunny.10 mph84%29.92 "HgN/A
2:30 PM79 °FPartly sunny.14 mph84%29.92 "HgN/A
2:00 PM79 °FPartly sunny.8 mph84%29.92 "HgN/A
1:30 PM81 °FPartly sunny.9 mph79%29.95 "HgN/A
1:00 PM82 °FPartly sunny.6 mph79%29.95 "HgN/A
Weather by CustomWeather, © 2016

See weather overviewHow to use our weather pages